SCP
0 0 0 0 0 0 0 0 0 0 0 0 0 0 0 0 0 0 0 0 0 0 0 0 0 0 0 0 0 0 0 0 0 0 0 0 0 0 0 0 0 0 0
0 0 0 0 0 0 0 0 0 0 0 0 0 0 0 0 0 0 0 0 0 0 0 0 0 0 0 0 0 0 0 0 0 0 0 0 0 0 0 0 0 0 0
0 0 0 0 0 0 0 0 0 0 0 0 0 0 0 0 0 0 0 0 0 0 0 0 0 0 0 0 0 0 0 0 0 0 0 0 0 0 0 0 0 0 0
0 0 0 0 0 0 0 0 0 0 0 0 0 0 0 0 0 0 0 0 0 0 0 0 0 0 0 0 0 0 0 0 0 0 0 0 0 0 0 0 0 0 0
0 0 0 0 0 0 0 0 0 0 0 0 0 0 0 0 0 0 0 0 0 0 0 0 0 0 0 0 0 0 0 0 0 0 0 0 0 0 0 0 0 0 0
0 0 0 0 0 0 0 0 0 0 0 0 0 0 0 0 0 0 0 0 0 0 0 0 0 0 0 0 0 0 0 0 0 0 0 0 0 0 0 0 0 0 0
0 0 0 0 0 0 0 0 0 0 0 0 0 0 0 0 0 0 0 0 0 0 0 0 0 0 0 0 0 0 0 0 0 0 0 0 0 0 0 0 0 0 0
0 0 0 0 0 0 0 0 0 0 0 0 0 0 0 0 0 0 0 0 0 0 0 0 0 0 0 0 0 0 0 0 0 0 0 0 0 0 0 0 0 0 0
0 0 0 0 0 0 0 0 0 0 0 0 0 0 0 0 0 0 0 0 0 0 0 0 0 0 0 0 0 0 0 0 0 0 0 0 0 0 0 0 0 0 0
0 0 0 0 0 0 0 0 0 0 0 0 0 0 0 0 0 0 0 0 0 0 0 0 0 0 0 0 0 0 0 0 0 0 0 0 0 0 0 0 0 0 0
0 0 0 0 0 0 0 0 0 0 0 0 0 0 0 0 0 0 0 0 0 0 0 0 0 0 0 0 0 0 0 0 0 0 0 0 0 0 0 0 0 0 0
0 0 0 0 0 0 0 0 0 0 0 0 0 0 0 0 0 0 0 0 0 0 0 0 0 0 0 0 0 0 0 0 0 0 0 0 0 0 0 0 0 0 0
0 0 0 0 0 0 0 0 0 0 0 0 0 0 0 0 0 0 0 0 0 0 0 0 0 0 0 0 0 0 0 0 0 0 0 0 0 0 0 0 0 0 0
0 0 0 0 0 0 0 0 0 0 0 0 0 0 0 0 0 0 0 0 0 0 0 0 0 0 0 0 0 0 0 0 0 0 0 0 0 0 0 0 0 0 0
0 0 0 0 0 0 0 0 0 0 0 0 0 0 0 0 0 0 0 0 0 0 0 0 0 0 0 0 0 0 0 0 0 0 0 0 0 0 0 0 0 0 0
0 0 0 0 0 0 0 0 0 0 0 0 0 0 0 0 0 0 0 0 0 0 0 0 0 0 0 0 0 0 0 0 0 0 0 0 0 0 0 0 0 0 0
0 0 0 0 0 0 0 0 0 0 0 0 0 0 0 0 0 0 0 0 0 0 0 0 0 0 0 0 0 0 0 0 0 0 0 0 0 0 0 0 0 0 0
0 0 0 0 0 0 0 0 0 0 0 0 0 0 0 0 0 0 0 0 0 0 0 0 0 0 0 0 0 0 0 0 0 0 0 0 0 0 0 0 0 0 0
0 0 0 0 0 0 0 0 0 0 0 0 0 0 0 0 0 0 0 0 0 0 0 0 0 0 0 0 0 0 0 0 0 0 0 0 0 0 0 0 0 0 0
0 0 0 0 0 0 0 0 0 0 0 0 0 0 0 0 0 0 0 0 0 0 0 0 0 0 0 0 0 0 0 0 0 0 0 0 0 0 0 0 0 0 0
0 0 0 0 0 0 0 0 0 0 0 0 0 0 0 0 0 0 0 0 0 0 0 0 0 0 0 0 0 0 0 0 0 0 0 0 0 0 0 0 0 0 0
0 0 0 0 0 0 0 0 0 0 0 0 0 0 0 0 0 0 0 0 0 0 0 0 0 0 0 0 0 0 0 0 0 0 0 0 0 0 0 0 0 0 0
0 0 0 0 0 0 0 0 0 0 0 0 0 0 0 0 0 0 0 0 0 0 0 0 0 0 0 0 0 0 0 0 0 0 0 0 0 0 0 0 0 0 0
0 0 0 0 0 0 0 0 0 0 0 0 0 0 0 0 0 0 0 0 0 0 0 0 0 0 0 0 0 0 0 0 0 0 0 0 0 0 0 0 0 0 0
0 0 0 0 0 0 0 0 0 0 0 0 0 0 0 0 0 0 0 0 0 0 0 0 0 0 0 0 0 0 0 0 0 0 0 0 0 0 0 0 0 0 0
0 0 0 0 0 0 0 0 0 0 0 0 0 0 0 0 0 0 0 0 0 0 0 0 0 0 0 0 0 0 0 0 0 0 0 0 0 0 0 0 0 0 0
Wind_Speed_500mb
30 26 23 19 17 15 8 10 12 14 15 16 18 19 23 26 27 30 31 28 31 39 38 39 38 36 35 31 33 35 38 40 41 41 41 42 43 44 45 45 47 49 51
36 31 30 28 24 24 20 20 19 17 18 20 21 23 25 27 27 29 31 26 24 24 24 23 21 27 36 36 37 33 35 36 35 34 35 36 39 41 42 43 43 44 44
45 39 37 35 33 30 29 26 22 19 22 24 22 27 28 27 26 25 23 21 17 13 11 9 11 29 33 33 30 33 36 38 40 42 45 47 50 52 54 55 55 55 56
52 47 46 44 42 39 37 30 25 25 27 28 27 31 29 27 25 22 19 16 12 9 9 12 14 17 18 22 27 33 37 40 42 44 47 50 52 52 52 55 57 58 60
59 61 52 48 48 44 45 37 32 31 36 36 37 35 32 29 25 20 15 11 9 8 10 13 11 12 16 23 29 34 36 38 41 44 46 50 53 55 57 57 59 61 62
64 62 57 58 60 53 53 45 40 40 39 41 45 40 35 29 22 18 13 11 9 9 9 9 8 14 20 25 27 30 32 34 38 42 48 52 55 57 60 64 65 64 67
70 69 62 66 65 44 59 49 45 47 53 52 52 43 34 28 23 20 16 12 10 8 7 6 11 16 19 22 24 26 27 31 38 42 47 51 57 62 67 72 73 70 69
73 68 71 70 71 59 62 55 52 55 57 58 52 40 24 22 25 23 19 16 12 7 3 4 9 14 17 20 20 20 23 29 35 41 47 52 57 62 66 68 64 66 70
77 70 66 69 73 66 71 64 57 65 69 71 59 30 18 17 34 28 24 20 15 10 5 1 5 9 11 14 15 19 23 28 32 37 43 49 55 60 63 63 63 64 69
64 72 73 76 73 74 74 64 60 68 71 70 67 56 28 25 21 21 31 26 21 17 11 6 3 5 9 12 13 17 20 25 30 36 42 48 52 56 59 64 67 70 71
70 71 63 90 70 78 64 72 67 77 73 70 66 61 48 34 31 19 24 35 31 24 18 13 8 4 5 5 8 13 17 23 28 34 39 45 50 54 59 63 68 71 75
72 73 68 68 71 66 60 67 73 74 71 69 66 54 51 46 43 31 19 30 25 28 24 18 13 9 6 4 4 8 14 21 27 33 38 42 48 53 58 62 68 75 80
82 77 77 75 71 63 65 71 75 74 72 67 63 55 50 46 33 38 28 33 31 30 28 24 20 16 13 8 6 8 13 19 25 30 36 42 48 53 59 65 70 76 80
70 76 81 77 68 66 72 72 74 75 71 66 63 56 51 46 39 34 30 31 25 25 30 27 26 23 17 14 12 13 16 21 27 31 37 43 49 54 60 65 70 77 81
73 79 80 80 72 72 73 75 76 74 71 65 60 56 52 44 37 31 27 27 25 22 26 30 27 26 22 19 18 20 22 26 32 37 41 46 51 57 62 67 71 74 80
74 79 88 79 79 78 78 81 79 74 71 68 63 59 51 43 35 29 24 22 20 21 19 27 30 27 25 25 28 30 31 35 39 43 47 50 56 61 64 65 69 73 79
75 84 86 85 83 84 83 82 78 75 72 68 64 57 49 39 32 26 21 16 21 21 24 26 28 28 29 32 35 38 42 44 49 52 55 59 61 64 65 66 69 73 77
75 79 85 88 87 84 86 86 83 79 75 72 65 56 46 39 29 18 18 23 23 23 24 28 31 32 35 36 40 46 51 53 56 59 62 67 66 66 69 68 70 73 76
75 80 85 92 90 89 89 87 80 76 73 67 59 51 43 32 19 19 24 25 24 24 26 29 33 35 38 41 45 51 55 61 64 68 70 74 71 72 76 74 72 73 76
75 81 88 93 93 91 90 89 83 77 72 66 58 48 38 22 20 22 27 28 27 27 28 29 34 37 41 45 49 54 59 62 69 72 74 72 74 83 84 80 77 76 79
75 77 85 93 96 96 95 93 86 81 73 67 59 52 37 25 27 28 33 33 30 31 31 33 37 39 42 45 50 54 62 66 71 72 71 71 83 84 80 80 77 79 83
74 79 84 92 97 101 96 92 85 79 74 68 63 52 40 30 32 33 40 39 36 36 36 39 40 44 46 50 54 58 63 63 65 63 70 90 80 84 80 73 85 86 86
73 74 78 86 97 101 98 94 84 78 73 68 62 53 38 32 40 41 46 43 45 44 43 46 48 51 53 55 61 64 65 66 61 58 78 99 83 86 81 84 92 90 80
73 74 79 85 95 101 99 94 85 79 73 69 63 47 37 49 48 43 49 48 53 52 50 55 59 60 62 63 66 66 69 73 75 73 67 87 84 94 100 96 93 80 75
75 71 77 83 93 99 94 92 86 80 73 70 63 48 57 57 53 49 56 56 57 56 55 59 63 64 67 67 67 61 70 72 82 59 59 73 73 82 103 103 80 93 101
70 68 73 78 87 86 83 89 86 81 76 75 64 64 67 61 56 57 63 60 66 60 59 63 66 69 70 69 63 66 67 70 73 73 39 65 67 52 56 110 106 107 105
Wind_Direction_500mb
227 223 230 225 220 214 215 247 197 171 160 150 140 134 131 127 123 118 112 108 103 97 92 86 80 73 66 48 44 35 32 28 20 16 14 14 12 9 8 4 1 359 357
228 230 226 228 226 216 211 210 209 189 174 156 154 143 138 131 128 125 124 121 116 110 88 76 62 62 68 64 56 33 22 15 16 18 19 17 13 8 2 357 352 348 344
233 232 233 228 221 226 217 207 222 199 180 167 166 151 143 137 134 132 127 119 110 97 85 76 71 75 73 61 40 18 25 25 24 21 20 19 17 16 16 14 12 9 6
237 234 238 227 226 218 225 218 234 221 194 180 176 160 153 147 141 134 127 121 118 110 101 88 70 60 40 28 25 31 31 28 26 25 25 24 22 22 19 15 11 8 4
237 238 236 230 236 228 222 222 229 216 195 185 179 167 159 155 149 140 134 132 128 118 95 88 69 56 48 43 38 38 36 33 33 29 26 22 18 15 12 11 7 4 1
233 239 235 231 238 219 231 218 215 207 206 196 177 168 162 160 154 150 157 158 145 122 103 91 73 52 51 45 39 38 39 35 28 24 22 20 18 15 12 8 4 2 359
233 233 235 235 236 241 216 219 217 215 199 194 182 166 162 164 167 172 173 167 156 145 119 79 49 43 38 35 30 33 28 29 27 23 21 19 16 13 10 7 4 1 357
230 229 235 226 223 234 211 217 216 208 205 195 189 170 161 173 184 185 185 182 176 164 135 52 34 27 24 20 24 27 24 26 25 22 19 17 14 13 11 7 2 358 355
229 224 233 235 228 230 220 218 224 221 208 196 194 182 168 190 186 194 194 193 191 189 203 307 7 11 12 16 24 24 24 21 18 18 17 15 12 10 7 3 358 355 352
221 234 236 239 225 229 217 217 234 223 215 209 201 205 206 203 179 183 201 203 201 203 207 221 274 349 9 17 21 23 20 17 17 16 12 9 6 4 1 357 352 350 349
226 227 236 225 222 217 223 230 225 216 216 216 212 213 218 217 205 189 187 203 204 206 212 218 235 295 341 8 21 16 14 14 12 9 5 1 357 357 354 350 347 345 344
224 229 224 221 219 226 237 231 221 218 215 214 218 225 230 220 217 208 188 191 200 210 214 219 233 256 267 260 327 360 1 0 359 359 355 351 349 350 348 344 342 341 340
230 222 226 221 225 235 233 223 218 215 213 216 221 230 226 223 230 224 221 199 196 209 214 224 234 243 243 253 294 322 338 342 343 343 341 342 342 344 342 340 338 335 336
231 232 221 221 226 229 222 216 213 212 214 218 222 221 223 224 228 218 221 205 194 205 218 231 233 238 242 252 272 296 313 320 323 330 332 333 336 338 336 334 334 335 334
235 230 233 222 222 218 220 212 211 212 215 217 218 219 219 221 218 214 212 210 210 209 217 231 233 236 248 263 279 288 299 309 315 319 322 325 329 328 328 330 330 331 330
234 233 233 220 220 219 216 212 212 213 214 215 214 214 214 212 211 212 214 217 221 227 218 236 233 249 263 275 282 289 298 304 304 309 314 318 320 322 322 324 325 328 329
240 236 226 225 220 219 215 213 213 213 213 213 210 210 209 207 208 210 216 234 235 234 236 241 247 259 269 277 286 294 297 299 303 308 313 313 316 317 317 320 323 324 326
237 231 227 224 219 216 214 214 213 212 212 210 210 207 205 202 199 212 247 240 244 245 250 255 258 264 273 283 290 294 297 300 304 307 311 310 311 312 316 319 321 322 324
235 232 230 227 222 216 217 216 214 215 212 212 211 208 202 192 216 230 246 248 250 256 262 267 273 277 285 292 296 298 302 305 307 310 311 310 311 312 317 320 321 320 322
231 233 231 229 222 219 218 217 213 212 211 209 205 200 193 212 222 237 249 249 253 261 268 274 278 285 291 295 299 302 304 307 308 310 311 310 314 318 319 321 321 321 323
238 239 233 227 222 216 220 218 215 211 210 206 199 191 204 218 218 231 247 250 253 261 269 275 279 285 290 295 299 301 303 306 307 309 311 311 313 320 322 322 320 321 323
242 239 233 228 221 218 220 217 216 213 209 207 201 197 212 251 222 228 246 251 257 260 267 273 280 286 292 295 298 300 301 305 308 305 305 311 316 318 318 317 319 323 320
245 245 239 233 226 224 219 219 215 214 212 207 201 211 228 270 230 227 245 252 260 262 267 273 279 283 288 294 296 297 299 297 295 297 304 307 314 315 317 317 319 320 318
243 247 245 238 231 224 219 218 216 213 211 208 208 220 257 275 232 226 247 253 263 266 270 277 282 287 291 294 295 297 295 294 296 302 303 302 312 313 316 318 319 319 319
245 244 247 241 232 225 219 220 217 214 211 208 215 231 261 270 240 222 247 253 262 270 275 279 280 282 285 287 290 293 289 292 296 294 288 297 308 312 315 317 314 317 319
246 244 244 243 234 223 220 224 220 217 214 212 222 248 259 271 254 233 239 252 260 271 278 278 279 280 283 284 284 284 283 283 289 291 294 296 302 315 313 313 313 316 317
Wind_Speed_850mb
30 26 23 19 17 15 8 10 12 14 15 16 18 19 23 26 27 30 31 28 31 39 38 39 38 36 35 31 33 35 38 40 41 41 41 42 43 44 45 45 47 49 51
36 31 30 28 24 24 20 20 19 17 18 20 21 23 25 27 27 29 31 26 24 24 24 23 21 27 36 36 37 33 35 36 35 34 35 36 39 41 42 43 43 44 44
45 39 37 35 33 30 29 26 22 19 22 24 22 27 28 27 26 25 23 21 17 13 11 9 11 29 33 33 30 33 36 38 40 42 45 47 50 52 54 55 55 55 56
52 47 46 44 42 39 37 30 25 25 27 28 27 31 29 27 25 22 19 16 12 9 9 12 14 17 18 22 27 33 37 40 42 44 47 50 52 52 52 55 57 58 60
59 61 52 48 48 44 45 37 32 31 36 36 37 35 32 29 25 20 15 11 9 8 10 13 11 12 16 23 29 34 36 38 41 44 46 50 53 55 57 57 59 61 62
64 62 57 58 60 53 53 45 40 40 39 41 45 40 35 29 22 18 13 11 9 9 9 9 8 14 20 25 27 30 32 34 38 42 48 52 55 57 60 64 65 64 67
70 69 62 66 65 44 59 49 45 47 53 52 52 43 34 28 23 20 16 12 10 8 7 6 11 16 19 22 24 26 27 31 38 42 47 51 57 62 67 72 73 70 69
73 68 71 70 71 59 62 55 52 55 57 58 52 40 24 22 25 23 19 16 12 7 3 4 9 14 17 20 20 20 23 29 35 41 47 52 57 62 66 68 64 66 70
77 70 66 69 73 66 71 64 57 65 69 71 59 30 18 17 34 28 24 20 15 10 5 1 5 9 11 14 15 19 23 28 32 37 43 49 55 60 63 63 63 64 69
64 72 73 76 73 74 74 64 60 68 71 70 67 56 28 25 21 21 31 26 21 17 11 6 3 5 9 12 13 17 20 25 30 36 42 48 52 56 59 64 67 70 71
70 71 63 90 70 78 64 72 67 77 73 70 66 61 48 34 31 19 24 35 31 24 18 13 8 4 5 5 8 13 17 23 28 34 39 45 50 54 59 63 68 71 75
72 73 68 68 71 66 60 67 73 74 71 69 66 54 51 46 43 31 19 30 25 28 24 18 13 9 6 4 4 8 14 21 27 33 38 42 48 53 58 62 68 75 80
82 77 77 75 71 63 65 71 75 74 72 67 63 55 50 46 33 38 28 33 31 30 28 24 20 16 13 8 6 8 13 19 25 30 36 42 48 53 59 65 70 76 80
70 76 81 77 68 66 72 72 74 75 71 66 63 56 51 46 39 34 30 31 25 25 30 27 26 23 17 14 12 13 16 21 27 31 37 43 49 54 60 65 70 77 81
73 79 80 80 72 72 73 75 76 74 71 65 60 56 52 44 37 31 27 27 25 22 26 30 27 26 22 19 18 20 22 26 32 37 41 46 51 57 62 67 71 74 80
74 79 88 79 79 78 78 81 79 74 71 68 63 59 51 43 35 29 24 22 20 21 19 27 30 27 25 25 28 30 31 35 39 43 47 50 56 61 64 65 69 73 79
75 84 86 85 83 84 83 82 78 75 72 68 64 57 49 39 32 26 21 16 21 21 24 26 28 28 29 32 35 38 42 44 49 52 55 59 61 64 65 66 69 73 77
75 79 85 88 87 84 86 86 83 79 75 72 65 56 46 39 29 18 18 23 23 23 24 28 31 32 35 36 40 46 51 53 56 59 62 67 66 66 69 68 70 73 76
75 80 85 92 90 89 89 87 80 76 73 67 59 51 43 32 19 19 24 25 24 24 26 29 33 35 38 41 45 51 55 61 64 68 70 74 71 72 76 74 72 73 76
75 81 88 93 93 91 90 89 83 77 72 66 58 48 38 22 20 22 27 28 27 27 28 29 34 37 41 45 49 54 59 62 69 72 74 72 74 83 84 80 77 76 79
75 77 85 93 96 96 95 93 86 81 73 67 59 52 37 25 27 28 33 33 30 31 31 33 37 39 42 45 50 54 62 66 71 72 71 71 83 84 80 80 77 79 83
74 79 84 92 97 101 96 92 85 79 74 68 63 52 40 30 32 33 40 39 36 36 36 39 40 44 46 50 54 58 63 63 65 63 70 90 80 84 80 73 85 86 86
73 74 78 86 97 101 98 94 84 78 73 68 62 53 38 32 40 41 46 43 45 44 43 46 48 51 53 55 61 64 65 66 61 58 78 99 83 86 81 84 92 90 80
73 74 79 85 95 101 99 94 85 79 73 69 63 47 37 49 48 43 49 48 53 52 50 55 59 60 62 63 66 66 69 73 75 73 67 87 84 94 100 96 93 80 75
75 71 77 83 93 99 94 92 86 80 73 70 63 48 57 57 53 49 56 56 57 56 55 59 63 64 67 67 67 61 70 72 82 59 59 73 73 82 103 103 80 93 101
70 68 73 78 87 86 83 89 86 81 76 75 64 64 67 61 56 57 63 60 66 60 59 63 66 69 70 69 63 66 67 70 73 73 39 65 67 52 56 110 106 107 105
Wind_Direction_850mb
227 223 230 225 220 214 215 247 197 171 160 150 140 134 131 127 123 118 112 108 103 97 92 86 80 73 66 48 44 35 32 28 20 16 14 14 12 9 8 4 1 359 357
228 230 226 228 226 216 211 210 209 189 174 156 154 143 138 131 128 125 124 121 116 110 88 76 62 62 68 64 56 33 22 15 16 18 19 17 13 8 2 357 352 348 344
233 232 233 228 221 226 217 207 222 199 180 167 166 151 143 137 134 132 127 119 110 97 85 76 71 75 73 61 40 18 25 25 24 21 20 19 17 16 16 14 12 9 6
237 234 238 227 226 218 225 218 234 221 194 180 176 160 153 147 141 134 127 121 118 110 101 88 70 60 40 28 25 31 31 28 26 25 25 24 22 22 19 15 11 8 4
237 238 236 230 236 228 222 222 229 216 195 185 179 167 159 155 149 140 134 132 128 118 95 88 69 56 48 43 38 38 36 33 33 29 26 22 18 15 12 11 7 4 1
233 239 235 231 238 219 231 218 215 207 206 196 177 168 162 160 154 150 157 158 145 122 103 91 73 52 51 45 39 38 39 35 28 24 22 20 18 15 12 8 4 2 359
233 233 235 235 236 241 216 219 217 215 199 194 182 166 162 164 167 172 173 167 156 145 119 79 49 43 38 35 30 33 28 29 27 23 21 19 16 13 10 7 4 1 357
230 229 235 226 223 234 211 217 216 208 205 195 189 170 161 173 184 185 185 182 176 164 135 52 34 27 24 20 24 27 24 26 25 22 19 17 14 13 11 7 2 358 355
229 224 233 235 228 230 220 218 224 221 208 196 194 182 168 190 186 194 194 193 191 189 203 307 7 11 12 16 24 24 24 21 18 18 17 15 12 10 7 3 358 355 352
221 234 236 239 225 229 217 217 234 223 215 209 201 205 206 203 179 183 201 203 201 203 207 221 274 349 9 17 21 23 20 17 17 16 12 9 6 4 1 357 352 350 349
226 227 236 225 222 217 223 230 225 216 216 216 212 213 218 217 205 189 187 203 204 206 212 218 235 295 341 8 21 16 14 14 12 9 5 1 357 357 354 350 347 345 344
224 229 224 221 219 226 237 231 221 218 215 214 218 225 230 220 217 208 188 191 200 210 214 219 233 256 267 260 327 360 1 0 359 359 355 351 349 350 348 344 342 341 340
230 222 226 221 225 235 233 223 218 215 213 216 221 230 226 223 230 224 221 199 196 209 214 224 234 243 243 253 294 322 338 342 343 343 341 342 342 344 342 340 338 335 336
231 232 221 221 226 229 222 216 213 212 214 218 222 221 223 224 228 218 221 205 194 205 218 231 233 238 242 252 272 296 313 320 323 330 332 333 336 338 336 334 334 335 334
235 230 233 222 222 218 220 212 211 212 215 217 218 219 219 221 218 214 212 210 210 209 217 231 233 236 248 263 279 288 299 309 315 319 322 325 329 328 328 330 330 331 330
234 233 233 220 220 219 216 212 212 213 214 215 214 214 214 212 211 212 214 217 221 227 218 236 233 249 263 275 282 289 298 304 304 309 314 318 320 322 322 324 325 328 329
240 236 226 225 220 219 215 213 213 213 213 213 210 210 209 207 208 210 216 234 235 234 236 241 247 259 269 277 286 294 297 299 303 308 313 313 316 317 317 320 323 324 326
237 231 227 224 219 216 214 214 213 212 212 210 210 207 205 202 199 212 247 240 244 245 250 255 258 264 273 283 290 294 297 300 304 307 311 310 311 312 316 319 321 322 324
235 232 230 227 222 216 217 216 214 215 212 212 211 208 202 192 216 230 246 248 250 256 262 267 273 277 285 292 296 298 302 305 307 310 311 310 311 312 317 320 321 320 322
231 233 231 229 222 219 218 217 213 212 211 209 205 200 193 212 222 237 249 249 253 261 268 274 278 285 291 295 299 302 304 307 308 310 311 310 314 318 319 321 321 321 323
238 239 233 227 222 216 220 218 215 211 210 206 199 191 204 218 218 231 247 250 253 261 269 275 279 285 290 295 299 301 303 306 307 309 311 311 313 320 322 322 320 321 323
242 239 233 228 221 218 220 217 216 213 209 207 201 197 212 251 222 228 246 251 257 260 267 273 280 286 292 295 298 300 301 305 308 305 305 311 316 318 318 317 319 323 320
245 245 239 233 226 224 219 219 215 214 212 207 201 211 228 270 230 227 245 252 260 262 267 273 279 283 288 294 296 297 299 297 295 297 304 307 314 315 317 317 319 320 318
243 247 245 238 231 224 219 218 216 213 211 208 208 220 257 275 232 226 247 253 263 266 270 277 282 287 291 294 295 297 295 294 296 302 303 302 312 313 316 318 319 319 319
245 244 247 241 232 225 219 220 217 214 211 208 215 231 261 270 240 222 247 253 262 270 275 279 280 282 285 287 290 293 289 292 296 294 288 297 308 312 315 317 314 317 319
246 244 244 243 234 223 220 224 220 217 214 212 222 248 259 271 254 233 239 252 260 271 278 278 279 280 283 284 284 284 283 283 289 291 294 296 302 315 313 313 313 316 317